Weather History for Ft Lauderdale, FL

Change the Weather History Date:

Wednesday, May 1, 2013

  Actual Average Record
Temperature  
Mean Temperature 25 °C 26 °C  
Max Temperature 28 °C 29 °C 36 °C (1971)
Min Temperature 22 °C 22 °C 13 °C (1999)
Degree Days  
Heating Degree Days 0 0  
Month to date heating degree days 0 0  
Since 1 July heating degree days 85 112  
Cooling Degree Days 12 13  
Month to date cooling degree days 12 13  
Year to date cooling degree days 982 960  
Growing Degree Days 26 (Base 50)    
Moisture  
Dew Point 22 °C    
Average Humidity 84    
Maximum Humidity 93    
Minimum Humidity 74    
Precipitation  
Precipitation 68.58 mm 1.52 mm 6.86 mm (2013)
Month to date precipitation 2.70 0.06  
Year to date precipitation 11.83 12.90  
Snow  
Snow 0.00 cm - - ()
Month to date snowfall 0.0  
Since 1 July snowfall 0.0  
Snow Depth 0.00 cm    
Sea Level Pressure  
Sea Level Pressure 1014 hPa    
Wind  
Wind Speed 10 km/h (ESE)    
Max Wind Speed 35 km/h    
Max Gust Speed 39 km/h    
Visibility 11 kilometers    
Events Fog , Rain , Thunderstorm    
T = Trace of Precipitation, MM = Missing Value Source: NWS Daily Summary

Daily Weather History Graph

Daily Weather History Graph

Search for Another Location

Airport:

Trip Planner

Search our weather history database for the weather conditions in past years. The results will help you decide how hot, cold, wet, or windy it might be!

Date:

Astronomy

May. 01, 2013 Rise Set
Actual Time 6:43 AM EDT 7:52 PM EDT
Civil Twilight 6:18 AM EDT 8:16 PM EDT
Nautical Twilight 5:50 AM EDT 8:45 PM EDT
Astronomical Twilight 5:20 AM EDT 9:15 PM EDT
Moon 12:59 AM EDT (5/1) 12:19 PM EDT (5/1)
Length of Visible Light 13h 57m
Length of Day
13h 09m
Waning Gibbous, 59% of the Moon is Illuminated
May 1
Waning Gibbous
May 2
Last Quarter
May 9
New
May 18
First Quarter
May 25
Full

Hourly Weather History & Observations

Time (EDT) Temp. Heat Index Dew Point Humidity Pressure Visibility Wind Dir Wind Speed Gust Speed Precip Events Conditions
12:53 AM 22.8 °C - 21.1 °C 90% 1015.2 hPa 16.1 km Calm Calm - N/A   Clear
1:53 AM 22.8 °C - 21.1 °C 90% 1014.4 hPa 16.1 km SE 5.6 km/h / 1.5 m/s - N/A   Partly Cloudy
2:53 AM 23.3 °C - 21.7 °C 91% 1013.6 hPa 16.1 km SE 5.6 km/h / 1.5 m/s - N/A   Partly Cloudy
3:53 AM 23.3 °C - 21.7 °C 91% 1013.3 hPa 16.1 km ESE 5.6 km/h / 1.5 m/s - N/A   Scattered Clouds
4:13 AM 24.0 °C - 22.0 °C 89% 1013.4 hPa 16.1 km Calm Calm - N/A   Mostly Cloudy
4:29 AM 23.0 °C - 21.0 °C 88% 1013.8 hPa 1.6 km East 18.5 km/h / 5.1 m/s - 3.0 mm Rain Heavy Rain
4:38 AM 23.0 °C - 20.0 °C 83% 1013.4 hPa 4.8 km East 13.0 km/h / 3.6 m/s - 6.3 mm Rain Heavy Rain
4:47 AM 24.0 °C - 22.0 °C 89% 1013.4 hPa 11.3 km ENE 7.4 km/h / 2.1 m/s - 7.1 mm Rain Light Rain
4:53 AM 23.9 °C - 22.2 °C 90% 1013.6 hPa 11.3 km East 7.4 km/h / 2.1 m/s - 7.6 mm Rain Rain
5:05 AM 24.0 °C - 23.0 °C 94% 1013.8 hPa 4.0 km South 22.2 km/h / 6.2 m/s 33.3 km/h / 9.3 m/s 3.6 mm Rain Heavy Rain
5:15 AM 22.0 °C - 19.0 °C 83% 1013.4 hPa 2.4 km SSE 20.4 km/h / 5.7 m/s 38.9 km/h / 10.8 m/s 7.4 mm Rain Heavy Rain
5:30 AM 23.0 °C - 21.0 °C 88% 1013.4 hPa 4.8 km SSE 16.7 km/h / 4.6 m/s - 10.2 mm Rain Heavy Rain
5:32 AM 23.0 °C - 21.0 °C 88% 1013.8 hPa 4.8 km SSE 14.8 km/h / 4.1 m/s - 10.2 mm Rain Rain
5:53 AM 22.8 °C - 21.1 °C 90% 1013.5 hPa 8.0 km SSE 9.3 km/h / 2.6 m/s - 12.2 mm Rain Light Rain
6:32 AM 23.0 °C - 22.0 °C 94% 1014.1 hPa 12.9 km South 11.1 km/h / 3.1 m/s - 0.0 mm   Mostly Cloudy
6:48 AM 23.0 °C - 22.0 °C 94% 1014.1 hPa 2.4 km SSE 18.5 km/h / 5.1 m/s 35.2 km/h / 9.8 m/s 6.3 mm Rain Heavy Rain
6:53 AM 22.8 °C - 21.1 °C 90% 1014.4 hPa 1.2 km Variable 7.4 km/h / 2.1 m/s - 13.0 mm Rain Heavy Rain
6:57 AM 23.0 °C - 21.0 °C 88% 1014.4 hPa 0.4 km East 22.2 km/h / 6.2 m/s - 2.0 mm Fog , Rain Heavy Rain
7:00 AM 23.0 °C - 21.0 °C 88% 1014.4 hPa 1.2 km ESE 11.1 km/h / 3.1 m/s 25.9 km/h / 7.2 m/s 3.3 mm Rain Heavy Rain
7:03 AM 23.0 °C - 20.0 °C 83% 1014.4 hPa 2.4 km ESE 9.3 km/h / 2.6 m/s 25.9 km/h / 7.2 m/s 3.8 mm Rain Heavy Rain
7:12 AM 23.0 °C - 21.0 °C 88% 1014.4 hPa 11.3 km East 9.3 km/h / 2.6 m/s - 5.1 mm Rain Rain
7:53 AM 22.8 °C - 19.4 °C 81% 1015.0 hPa 11.3 km SSE 13.0 km/h / 3.6 m/s - 5.8 mm Rain Light Rain
8:53 AM 25.6 °C - 22.2 °C 81% 1014.8 hPa 16.1 km SE 5.6 km/h / 1.5 m/s - 0.0 mm   Mostly Cloudy
9:53 AM 26.7 °C 29.0 °C 22.8 °C 79% 1015.3 hPa 16.1 km ESE 14.8 km/h / 4.1 m/s - N/A   Scattered Clouds
10:53 AM 26.7 °C 28.8 °C 22.2 °C 76% 1015.7 hPa 16.1 km SE 14.8 km/h / 4.1 m/s - N/A   Scattered Clouds
11:53 AM 27.2 °C 29.6 °C 22.2 °C 74% 1015.5 hPa 16.1 km ESE 18.5 km/h / 5.1 m/s - N/A   Scattered Clouds
12:26 PM 28.0 °C 30.7 °C 22.0 °C 70% 1015.1 hPa 16.1 km ESE 20.4 km/h / 5.7 m/s - N/A   Mostly Cloudy
12:30 PM 28.0 °C 31.2 °C 23.0 °C 74% 1015.1 hPa 16.1 km SE 14.8 km/h / 4.1 m/s - N/A   Scattered Clouds
12:53 PM 27.8 °C 30.8 °C 22.8 °C 74% 1015.1 hPa 16.1 km SE 14.8 km/h / 4.1 m/s - N/A   Scattered Clouds
1:53 PM 27.8 °C 30.8 °C 22.8 °C 74% 1014.0 hPa 16.1 km ESE 20.4 km/h / 5.7 m/s - N/A   Partly Cloudy
2:53 PM 26.7 °C 28.8 °C 22.2 °C 76% 1014.4 hPa 16.1 km SSE 14.8 km/h / 4.1 m/s - N/A   Partly Cloudy
3:53 PM 26.1 °C - 22.8 °C 82% 1013.6 hPa 14.5 km ESE 9.3 km/h / 2.6 m/s - 0.3 mm Rain Light Rain
4:38 PM 26.0 °C - 23.0 °C 83% 1013.8 hPa 12.9 km East 5.6 km/h / 1.5 m/s - 1.3 mm Rain Light Rain
4:53 PM 25.0 °C - 22.8 °C 88% 1013.9 hPa 6.4 km Calm Calm - 1.8 mm Rain Light Rain
4:56 PM 25.0 °C - 23.0 °C 89% 1013.8 hPa 6.4 km North 11.1 km/h / 3.1 m/s - 0.3 mm Rain , Thunderstorm Thunderstorms and Rain
5:04 PM 24.0 °C - 23.0 °C 94% 1014.4 hPa 3.2 km WNW 22.2 km/h / 6.2 m/s 37.0 km/h / 10.3 m/s 2.5 mm Rain , Thunderstorm Heavy Thunderstorms and Rain
5:10 PM 23.0 °C - 22.0 °C 94% 1014.4 hPa 3.2 km Variable 5.6 km/h / 1.5 m/s 37.0 km/h / 10.3 m/s 6.6 mm Rain , Thunderstorm Heavy Thunderstorms and Rain
5:17 PM 23.0 °C - 22.0 °C 94% 1014.1 hPa 6.4 km NE 11.1 km/h / 3.1 m/s - 9.1 mm Rain , Thunderstorm Thunderstorms and Rain
5:33 PM 23.0 °C - 22.0 °C 94% 1013.1 hPa 8.0 km ENE 13.0 km/h / 3.6 m/s - 10.2 mm Rain , Thunderstorm Thunderstorms and Rain
5:44 PM 22.0 °C - 21.0 °C 94% 1013.1 hPa 14.5 km East 20.4 km/h / 5.7 m/s - 10.4 mm Rain Light Rain
5:53 PM 22.2 °C - 20.6 °C 91% 1013.1 hPa 16.1 km ESE 14.8 km/h / 4.1 m/s - 10.7 mm Rain Light Rain
6:53 PM 22.8 °C - 21.1 °C 90% 1014.4 hPa 16.1 km North 13.0 km/h / 3.6 m/s - N/A   Mostly Cloudy
7:53 PM 22.8 °C - 21.1 °C 90% 1014.2 hPa 16.1 km NNE 7.4 km/h / 2.1 m/s - N/A   Mostly Cloudy
8:53 PM 23.3 °C - 21.1 °C 87% 1014.6 hPa 16.1 km North 9.3 km/h / 2.6 m/s - N/A   Mostly Cloudy
9:53 PM 23.9 °C - 21.1 °C 84% 1014.4 hPa 16.1 km NE 5.6 km/h / 1.5 m/s - N/A   Partly Cloudy
10:33 PM 23.0 °C - 21.0 °C 88% 1014.4 hPa 16.1 km NNE 5.6 km/h / 1.5 m/s - N/A   Mostly Cloudy
10:44 PM 23.0 °C - 22.0 °C 94% 1014.4 hPa 16.1 km NE 11.1 km/h / 3.1 m/s - N/A   Scattered Clouds
10:53 PM 24.0 °C - 22.0 °C 89% 1014.5 hPa 16.1 km NE 11.1 km/h / 3.1 m/s - N/A   Scattered Clouds
11:53 PM 24.4 °C - 21.1 °C 82% 1014.2 hPa 16.1 km East 11.1 km/h / 3.1 m/s - 0.0 mm Rain Light Rain